Location: Unspecified
(22.6800°N, 112.2000°E)
Time: 09:00:45
(UTC+08:00)

S-56A Canister/Altair - Pass Details

Date: 02 August 2021
Orbit: 632 x 2500 km, 38.9° (Epoch: 27 September)

Event Time Altitude Azimuth Distance (km) Brightness Sun altitude
Rises 16:42:33 0° 280° (W) 5,629 13.0 32.7°
Reaches altitude 10° 16:46:23 10° 287° (WNW) 4,817 13.1 31.8°
Maximum altitude 16:59:37 42° 354° (N) 3,249 11.2 28.8°
Drops below altitude 10° 17:13:17 10° 61° (ENE) 4,959 11.3 25.6°
Sets 17:17:18 0° 69° (ENE) 5,803 11.5 24.7°
